Weather History for Juneau, AK

Change the Weather History Date:

Friday, May 3, 2013

  Actual Average Record
Temperature  
Mean Temperature 45 °F 45 °F  
Max Temperature 48 °F 53 °F 65 °F (1960)
Min Temperature 42 °F 37 °F 26 °F (2002)
Degree Days  
Heating Degree Days 20 20  
Month to date heating degree days 68 60  
Since 1 July heating degree days 8085 7588  
Cooling Degree Days 0 0  
Month to date cooling degree days 0 0  
Year to date cooling degree days 0 0  
Moisture  
Dew Point 42 °F    
Average Humidity 91    
Maximum Humidity 96    
Minimum Humidity 86    
Precipitation  
Precipitation 0.10 in 0.11 in 2.15 in (1992)
Month to date precipitation 1.33 0.32  
Year to date precipitation 24.37 16.52  
Sea Level Pressure  
Sea Level Pressure 30.42 in    
Wind  
Wind Speed 15 mph (ESE)    
Max Wind Speed 22 mph    
Max Gust Speed 27 mph    
Visibility 9 miles    
Events Rain    
T = Trace of Precipitation, MM = Missing Value Source: NWS Daily Summary

Daily Weather History Graph

Daily Weather History Graph

Search for Another Location

Airport:

Trip Planner

Search our weather history database for the weather conditions in past years. The results will help you decide how hot, cold, wet, or windy it might be!

Date:

Astronomy

May. 03, 2013 Rise Set
Actual Time 4:58 AM AKDT 8:53 PM AKDT
Civil Twilight 4:08 AM AKDT 9:44 PM AKDT
Nautical Twilight 2:53 AM AKDT 11:01 PM AKDT
Astronomical Twilight 1:27 AM AKDT 12:22 AM AKDT
Moon 2:50 AM AKDT (5/3) 1:37 PM AKDT (5/3)
Length of Visible Light 17h 36m
Length of Day
15h 55m
Waning Crescent, 35% of the Moon is Illuminated
May 3
Waning Crescent
May 9
New
May 17
First Quarter
May 24
Full
May 31
Last Quarter

Hourly Weather History & Observations

Time (AKDT) Temp. Windchill Dew Point Humidity Pressure Visibility Wind Dir Wind Speed Gust Speed Precip Events Conditions
12:53 AM 43.0 °F 38.2 °F 41.0 °F 93% 30.45 in 10.0 mi ENE 8.1 mph - 0.00 in Rain Light Rain
1:53 AM 43.0 °F 38.2 °F 41.0 °F 93% 30.47 in 10.0 mi East 8.1 mph - 0.01 in   Overcast
2:53 AM 43.0 °F 37.2 °F 41.0 °F 93% 30.48 in 10.0 mi ENE 10.4 mph - 0.00 in   Overcast
3:53 AM 42.1 °F 36.6 °F 41.0 °F 96% 30.48 in 10.0 mi ENE 9.2 mph - 0.02 in Rain Light Rain
4:53 AM 42.1 °F 37.1 °F 41.0 °F 96% 30.49 in 10.0 mi ENE 8.1 mph - 0.03 in   Overcast
5:53 AM 43.0 °F 36.8 °F 41.0 °F 93% 30.48 in 10.0 mi East 11.5 mph - 0.00 in Rain Light Rain
6:53 AM 43.0 °F 37.2 °F 41.0 °F 93% 30.48 in 10.0 mi East 10.4 mph - 0.00 in   Overcast
7:53 AM 44.1 °F 39.0 °F 42.1 °F 93% 30.51 in 10.0 mi East 9.2 mph - 0.00 in Rain Light Rain
8:53 AM 44.1 °F 37.7 °F 42.1 °F 93% 30.49 in 10.0 mi East 12.7 mph - 0.01 in Rain Light Rain
9:53 AM 45.0 °F 37.6 °F 42.1 °F 90% 30.48 in 10.0 mi ESE 17.3 mph - 0.00 in   Overcast
10:53 AM 45.0 °F 37.4 °F 41.0 °F 86% 30.47 in 10.0 mi SE 18.4 mph - 0.00 in   Overcast
11:53 AM 46.0 °F 39.3 °F 42.1 °F 86% 30.46 in 10.0 mi ESE 16.1 mph - N/A   Overcast
12:53 PM 46.9 °F - 42.1 °F 83% 30.46 in 10.0 mi ESE 18.4 mph - N/A   Overcast
1:53 PM 46.9 °F - 42.1 °F 83% 30.47 in 10.0 mi ESE 10.4 mph - 0.00 in Rain Light Rain
2:53 PM 46.9 °F - 43.0 °F 86% 30.43 in 10.0 mi ESE 16.1 mph - 0.01 in Rain Light Rain
3:53 PM 46.9 °F - 43.0 °F 86% 30.43 in 10.0 mi ESE 11.5 mph - 0.01 in Rain Light Rain
4:53 PM 46.0 °F 38.8 °F 43.0 °F 89% 30.40 in 7.0 mi ESE 18.4 mph 25.3 mph 0.02 in Rain Light Rain
5:53 PM 46.0 °F 38.8 °F 43.0 °F 89% 30.37 in 6.0 mi ESE 18.4 mph - 0.03 in Rain Light Rain
6:53 PM 45.0 °F 37.1 °F 43.0 °F 93% 30.34 in 6.0 mi ESE 19.6 mph - 0.05 in Rain Light Rain
7:53 PM 46.0 °F 38.5 °F 43.0 °F 89% 30.30 in 8.0 mi ESE 19.6 mph - 0.06 in Rain Light Rain
8:53 PM 46.0 °F 38.3 °F 42.1 °F 86% 30.29 in 8.0 mi ESE 20.7 mph 28.8 mph 0.02 in Rain Light Rain
9:53 PM 45.0 °F 37.1 °F 42.1 °F 90% 30.29 in 7.0 mi ESE 19.6 mph - 0.05 in Rain Light Rain
10:53 PM 46.0 °F 39.0 °F 43.0 °F 89% 30.28 in 5.0 mi ESE 17.3 mph 27.6 mph 0.09 in Rain Rain
11:53 PM 46.0 °F 38.8 °F 43.0 °F 89% 30.28 in 5.0 mi ESE 18.4 mph 27.6 mph 0.08 in Rain Light Rain